Regional Weather Roundup
Issued by NWS Newport/Morehead, NC

Current Version | Previous Version | Graphics & Text | Print | Product List | Glossary On
Versions: 1 2 3 4 5 6 7 8 9 10 11 12 13 14 15 16 17 18 19 20 21 22 23 24 25 26 27 28 29 30 31 32 33 34 35 36 37 38 39 40 41 42 43 44 45 46 47 48 49 50
000 ASUS42 KMHX 260825 RWRMHX WEATHER ROUNDUP FOR EASTERN NORTH CAROLINA NATIONAL WEATHER SERVICE NEWPORT/MOREHEAD CITY NC 300 AM EST SUN FEB 26 2017 NOTE: "FAIR" INDICATES FEW OR NO CLOUDS BELOW 12,000 FEET WITH NO SIGNIFICANT WEATHER AND/OR OBSTRUCTIONS TO VISIBILITY NCZ015>017-031-032-045>047-102-103-260900- NORTH COAST CITY SKY/WX TMP DP RH WIND PRES REMARKS EDENTON CLEAR 50 26 39 NW9 29.93R ELIZABETH CITY CLEAR 50 24 36 NW14G23 29.91R KITTY HAWK NOT AVBL MANTEO CLEAR 53 29 41 NW14G22 29.90R $$ NCZ045>047-081-094-103-104-260900- CENTRAL COAST CITY SKY/WX TMP DP RH WIND PRES REMARKS FRISCO CLEAR 56 47 71 VRB6 29.88R $$ NCZ095-097-098-100-101-260900- SOUTHERN COAST CITY SKY/WX TMP DP RH WIND PRES REMARKS BEAUFORT CLEAR 55 32 41 N10 29.91R CEDAR ISLAND NOT AVBL JACKSONVILLE CLEAR 53 26 35 NW12 29.93R PINEY ISLAND SUNNY N/A N/A N/A N17G23 29.90R WILMINGTON CLEAR 53 25 33 NW12 29.95R $$ NCZ011>013-027>030-043-044-078>080-089-090>093-098-260900- COASTAL PLAIN CITY SKY/WX TMP DP RH WIND PRES REMARKS AHOSKIE N/A 44 21 39 CALM 29.95R CLINTON CLEAR 50 24 36 NW5 29.96R ELIZABETHTOWN CLEAR 50 22 33 NW5 29.98R GOLDSBORO CLEAR 50 21 32 NW10 29.93R GREENVILLE CLEAR 48 19 32 NW7 29.97R HAVELOCK NOT AVBL KENANSVILLE CLEAR 50 21 32 NW8 29.96R KINSTON CLEAR 49 22 34 NW9 29.96R NEW BERN CLEAR 53 29 39 NW12 29.93R RICHLANDS CLEAR 52 24 33 VRB5 29.94R ROCKY MOUNT CLEAR 46 22 38 NW8 29.95R WASHINGTON CLEAR 47 24 40 NW7 29.95R WHITEVILLE CLEAR 51 26 37 CALM 29.97R $$ AMZ130-135-150-152-154-156-158-170-250-252-270-ANZ085-086-088-633-658-670-260900- MARINE OBSERVATIONS STATION/POSITION TIME TEMP WIND PRES WAVE SWELL AIR SEA DIR/SP/G HT/PER HT/PER (UTC) (F) (DEG/KT/KT) (MB) (FT/S) (FT/S) CHESAPEAKE LIGHT NOT AVBL 64 E VA BEACH 0750 51 51 340/ 19/ 25 1010.5 5/11 3/11 DUCK 0800 53 48 310/ 18/ 23 1011.5 2 E DUCK 0800 50 N/A 3/11 2/11 OREGON INLET 0800 53 62 330/ 7/ 10 1011.9 13E OREGON INLT NOT AVBL HATTERAS CG 0800 57 65 350/ 11/ 14 1011.8 DIAMOND BUOY 0750 61 74 360/ 19/ 25 1011.0 7/ 8 7/ 8 CAPE LOOKOUT 0800 59 330/ 19/ 22 1012.4 BEAUFORT LAB 0800 56 63 330/ 5/ 7 1012.0 30 SE NEW RVR IN 0808 61 340/ 19/ 23 1012.7 30 SE NEW RVR IN 0743 65 N/A 6/10 2/11 27 SE WRIGHTSVLE 0808 60 61 310/ 17/ 25 1012.5 5 SE WRIGHTSVLE 0808 57 58 320/ 12/ 21 1013.8 225 S CAPE HAT 0750 72 71 250/ 16/ 19 1012.2 6/ 9 5/ 9 41 SE CHARLESTON 0750 62 69 310/ 23/ 29 1014.2 6/ 5 2/ 9 $$

USA.gov is the U.S. government's official web portal to all federal, state and local government web resources and services.